Location: Bauerbach
(50.4985°N, 10.3912°E)
Time: 15:13:47
(UTC+00:00)

Meteor 2-10 Rocket - Pass Details

Date: 13 January 2026
Orbit: 733 x 881 km, 81.2° (Epoch: 10 February)

Event Time Altitude Azimuth Distance (km) Brightness Sun altitude
Rises 06:16:28 0° 218° (SW) 3,171 6.5 -9.0°
Reaches altitude 10° 06:18:58 10° 228° (SW) 2,265 5.7 -8.6°
Maximum altitude 06:23:34 34° 293° (WNW) 1,251 4.1 -7.9°
Drops below altitude 10° 06:28:21 10° 358° (N) 2,352 5.8 -7.2°
Sets 06:31:00 0° 8° (N) 3,311 6.6 -6.9°
